一网星座-0521星 (ONEWEB-0521 )

导读

ONEWEB-0521是英国OneWeb(一网公司)低轨卫星互联网星座的组网卫星,于2022年10月22日发射升空,归属英国运营。该卫星质量约175-200kg,运行在高度1200公里的近地极地轨道,工作于Ku波段,采用渐进俯仰技术避免信号干扰,旨在为全球提供高速低延迟卫星互联网接入服务,助力OneWeb完成全球覆盖的星座组网目标,填补偏远地区网络覆盖空白。

基本信息
目录编号:
54139
目录名称:
ONEWEB-0521
国际标识:
2022-138AC
轨道中心:
EARTH
卫星名称:
一网星座-0521星
卫星全名:
一网星座-0521星 (ONEWEB-0521 )
卫星状态:
在轨 (已飞行1331 天)
发射日期:
2022-10-22 UTC
国别 :
英国 (GB)
星等 :
--
轨道信息
数据来源 国际轨道数据
星历时间: 2026-06-14T05:40:10+0800
14小时前
查看轨道信息
半长轴: 7563.91km
偏心率: 0.0001979
轨道倾角: 87.918°
近地点辐角 92.201°
升交点赤经 305.609°
平近点角 267.935°
近地点: 1184.276km
远地点: 1187.27km
周期: 109.114分钟
每日圈数: 13.197246
详细信息
平衡模式:
三轴稳定
覆盖范围:
全球
运营商:
一网卫星公司
运营商所在国:
英国
制造商(研发单位):
一网卫星公司
制造商所在国:
英国
使用方式:
暂无
卫星简介
OneWeb卫星网络由648颗重约125公斤的微型卫星组成,运行在1200公里的轨道上。 每颗卫星都能够提供至少每秒8千兆位的吞吐量,以使用其高吞吐量的Ku频段有效载荷为家庭和移动平台提供互联网接入。该卫星仍在工作。
2D轨道图
3D轨道图
轨道高度分析图
轨道倾角分析图
轨道综合分析图
查看轨道综合分析图